Weather reports worldwide

Advertisment
Coleshill, United Kingdom (3535): temperature & dewpoint: 14.10.2017 22:00:00 - 20.10.2017 22:00:00 (BST)Coleshill, United Kingdom (3535): temperature -20cm & temperature -100cm: 14.10.2017 22:00:00 - 20.10.2017 22:00:00 (BST)Coleshill, United Kingdom (3535): wind speed & gusts: 14.10.2017 22:00:00 - 20.10.2017 22:00:00 (BST)Coleshill, United Kingdom (3535): wind direction: 14.10.2017 22:00:00 - 20.10.2017 22:00:00 (BST)Coleshill, United Kingdom (3535): reduced air pressure: 14.10.2017 22:00:00 - 20.10.2017 22:00:00 (BST)Coleshill, United Kingdom (3535): visibility: 14.10.2017 22:00:00 - 20.10.2017 22:00:00 (BST)Coleshill, United Kingdom (3535): precipitation: 14.10.2017 22:00:00 - 20.10.2017 22:00:00 (BST)
Date & Time tt [°C] td [°C] tt -20cm [°C] tt -100cm [°C] ff [km/h] ff [kn] fx [km/h] fx [kn] dd ppp [hPa] vv [km] rr [mm]
20.10.2017 22:00:00 10,9 9,5 - - 15 8 - - SSE 1003,2 13 -
20.10.2017 21:00:00 10,8 8,4 - - 15 8 - - SSE 1004,3 35 0,0
20.10.2017 20:00:00 10,8 7,2 - - 15 8 - - SSE 1005,3 40 0,0
20.10.2017 19:00:00 10,7 7,0 - - 13 7 - - S 1006,1 35 0,0
20.10.2017 18:00:00 11,1 6,6 - - 15 8 - - SSW 1006,3 35 0,0
20.10.2017 17:00:00 11,8 6,8 - - 15 8 - - SSW 1006,7 45 0,0
20.10.2017 16:00:00 12,5 7,6 - - 11 6 - - SW 1006,2 50 0,0
20.10.2017 15:00:00 12,5 9,0 - - 13 7 - - SW 1006,1 50 0,0
20.10.2017 14:00:00 13,5 9,9 - - 15 8 - - WSW 1005,3 50 0,0
20.10.2017 13:00:00 13,5 11,2 - - 15 8 - - WSW 1004,7 50 0,0
20.10.2017 12:00:00 12,8 12,3 - - 13 7 - - WSW 1004,3 26 0,8
20.10.2017 11:00:00 13,2 11,7 - - 15 8 - - W 1003,0 50 0,0
20.10.2017 10:00:00 12,1 11,6 13,7 14,2 8 4 - - SW 1001,9 21 0,0
20.10.2017 09:00:00 11,5 11,2 - - 5 3 - - SW 1000,5 19 0,4
20.10.2017 08:00:00 11,2 10,6 - - 9 5 - - WSW 998,7 29 0,0
20.10.2017 07:00:00 11,4 10,6 - - 16 9 - - W 997,4 50 0,0
20.10.2017 06:00:00 11,5 11,4 - - 9 5 - - W 995,9 35 0,6
20.10.2017 05:00:00 11,3 11,2 - - 4 2 - - WSW 994,7 1,2 0,2
20.10.2017 04:00:00 11,2 11,1 - - 9 5 - - S 994,0 4,2 0,2
20.10.2017 03:00:00 11,2 10,8 - - 11 6 - - SSE 993,8 2,7 0,2
20.10.2017 02:00:00 11,6 10,4 - - 18 10 - - SSE 994,2 30 0,0
20.10.2017 01:00:00 12,3 10,8 - - 16 9 - - SSE 994,5 45 0,0
20.10.2017 00:00:00 12,9 12,1 - - 21 11 46 25 SSE 994,5 50 0,4
19.10.2017 23:00:00 12,8 12,2 - - 21 11 - - SSE 995,1 2,8 1,0
19.10.2017 22:00:00 13,5 12,2 - - 24 13 48 26 SSE 996,0 35 0,0
19.10.2017 21:00:00 13,2 12,6 - - 18 10 46 25 SSE 996,4 8 1,0
19.10.2017 20:00:00 13,0 12,4 - - 15 8 - - SSE 997,2 12 0,4
19.10.2017 19:00:00 13,3 12,7 - - 15 8 - - SSE 998,1 10 0,0
19.10.2017 18:00:00 13,3 12,9 - - 11 6 - - SSE 998,3 15 0,0
19.10.2017 17:00:00 13,4 12,5 - - 11 6 - - S 998,4 23 2,8
19.10.2017 16:00:00 15,4 15,0 - - 9 5 - - SE 998,2 4,1 0,0
19.10.2017 15:00:00 15,1 14,8 - - 11 6 - - ESE 999,1 4,9 0,0
19.10.2017 14:00:00 14,3 14,2 - - 9 5 - - ESE 1000,3 2,6 0,4
19.10.2017 13:00:00 14,0 13,9 - - 9 5 - - ESE 1001,8 3,2 4,2
19.10.2017 12:00:00 13,2 13,2 - - 5 3 - - E 1003,2 3,7 2,6
19.10.2017 11:00:00 12,2 12,2 - - 4 2 - - E 1004,4 2,3 2,0
19.10.2017 10:00:00 11,8 11,8 13,7 14,2 4 2 - - ESE 1005,1 3,7 0,2
19.10.2017 09:00:00 11,2 11,2 - - 4 2 - - ESE 1005,4 3,5 0,0
19.10.2017 08:00:00 10,8 10,8 - - 8 4 - - SSE 1006,0 3,9 0,0
19.10.2017 07:00:00 10,9 10,9 - - 8 4 - - S 1006,2 3,4 0,0
19.10.2017 06:00:00 11,0 11,0 - - 4 2 - - SW 1006,7 1,8 0,0
19.10.2017 05:00:00 11,2 11,2 - - 5 3 - - SSW 1007,1 3,7 0,0
19.10.2017 04:00:00 11,2 11,2 - - 8 4 - - S 1007,5 0,4 0,0
19.10.2017 03:00:00 11,2 11,2 - - 8 4 - - S 1007,9 0,5 0,0
19.10.2017 02:00:00 11,1 11,1 - - 5 3 - - S 1008,1 1,4 0,0
19.10.2017 01:00:00 11,0 11,0 - - 5 3 - - SSE 1008,8 1,0 0,0
19.10.2017 00:00:00 10,9 10,9 - - 5 3 - - SSE 1008,9 0,6 0,0
18.10.2017 23:00:00 10,9 10,9 - - 5 3 - - SSE 1009,1 1,1 0,0
18.10.2017 22:00:00 11,0 10,8 - - 4 2 - - SE 1009,6 1,7 0,0
18.10.2017 21:00:00 11,1 10,9 - - 4 2 - - SE 1010,0 1,3 0,4
18.10.2017 20:00:00 11,0 10,8 - - 4 2 - - SE 1010,3 1,6 0,2
18.10.2017 19:00:00 11,1 10,6 - - 8 4 - - E 1010,1 2,8 0,0
18.10.2017 18:00:00 11,1 10,5 - - 8 4 - - E 1010,2 4,7 0,0
18.10.2017 17:00:00 11,1 10,4 - - 8 4 - - E 1010,6 8 0,0
18.10.2017 16:00:00 11,0 10,3 - - 5 3 - - E 1011,0 8 0,0
18.10.2017 15:00:00 10,9 10,1 - - 9 5 - - E 1011,1 12 0,0
18.10.2017 14:00:00 10,5 9,8 - - 9 5 - - E 1011,8 5 0,0
18.10.2017 13:00:00 10,6 9,9 - - 8 4 - - E 1012,3 4,4 0,0
18.10.2017 12:00:00 10,8 9,4 - - 8 4 - - E 1012,7 27 0,0
18.10.2017 11:00:00 10,5 8,6 - - 11 6 - - ESE 1013,1 30 0,0
18.10.2017 10:00:00 10,1 8,0 13,7 14,4 8 4 - - E 1013,5 35 0,0
18.10.2017 09:00:00 9,7 8,0 - - 5 3 - - E 1013,7 35 0,0
18.10.2017 08:00:00 9,5 7,9 - - 4 2 - - E 1013,4 35 0,0
18.10.2017 07:00:00 9,5 7,8 - - 4 2 - - E 1013,6 35 0,0
18.10.2017 06:00:00 9,4 8,1 - - 4 2 - - ENE 1013,7 25 0,0
18.10.2017 05:00:00 9,5 8,3 - - 2 1 - - ENE 1014,0 16 0,0
18.10.2017 04:00:00 9,4 8,3 - - 4 2 - - NE 1014,4 35 0,0
18.10.2017 03:00:00 9,4 8,8 - - 4 2 - - NE 1015,1 26 0,0
18.10.2017 02:00:00 9,5 9,0 - - 4 2 - - SSE 1015,7 21 0,0
18.10.2017 01:00:00 9,5 8,7 - - 2 1 - - SE 1016,3 22 0,6
18.10.2017 00:00:00 9,5 8,1 - - 2 1 - - S 1017,0 14 0,4
17.10.2017 23:00:00 10,1 7,4 - - 5 3 - - SSE 1016,7 21 0,0
17.10.2017 22:00:00 11,0 6,6 - - 4 2 - - NW 1016,6 35 0,0
17.10.2017 21:00:00 11,0 6,1 - - 2 1 - - NE 1016,4 28 0,0
17.10.2017 20:00:00 11,9 4,8 - - 5 3 - - NW 1016,5 45 0,0
17.10.2017 19:00:00 12,7 5,3 - - 5 3 - - W 1016,5 40 0,0
17.10.2017 18:00:00 13,4 5,3 - - 8 4 - - WSW 1016,4 45 0,0
17.10.2017 17:00:00 14,2 4,9 - - 9 5 - - WSW 1016,6 45 0,0
17.10.2017 16:00:00 14,6 5,2 - - 11 6 - - WSW 1016,9 45 0,0
17.10.2017 15:00:00 14,9 4,0 - - 16 9 - - WSW 1017,2 45 0,0
17.10.2017 14:00:00 15,7 4,9 - - 16 9 - - WSW 1017,6 50 0,0
17.10.2017 13:00:00 15,3 5,1 - - 16 9 - - SW 1017,7 45 0,0
17.10.2017 12:00:00 14,0 6,9 - - 21 11 - - WSW 1017,9 35 0,0
17.10.2017 11:00:00 13,4 7,6 - - 15 8 - - SW 1017,8 30 0,0
17.10.2017 10:00:00 12,1 7,2 14,0 14,4 13 7 - - SSW 1017,8 30 0,0
17.10.2017 09:00:00 10,3 6,5 - - 18 10 - - S 1017,5 27 0,0
17.10.2017 08:00:00 10,8 6,3 - - 11 6 - - SW 1016,8 30 0,0
17.10.2017 07:00:00 11,7 6,2 - - 13 7 - - SW 1016,2 30 0,0
17.10.2017 06:00:00 12,2 6,0 - - 11 6 - - SW 1015,8 30 0,0
17.10.2017 05:00:00 12,3 5,9 - - 11 6 - - SW 1015,1 30 0,0
17.10.2017 04:00:00 12,4 6,2 - - 13 7 - - SSW 1014,7 30 0,0
17.10.2017 03:00:00 12,9 6,4 - - 21 11 - - SW 1014,4 29 0,0
17.10.2017 02:00:00 13,1 6,3 - - 18 10 50 27 SSW 1014,1 29 0,0
17.10.2017 01:00:00 13,1 7,0 - - 24 13 50 27 SSW 1013,5 26 0,0
17.10.2017 00:00:00 13,1 7,3 - - 28 15 59 32 SSW 1013,3 25 0,0
16.10.2017 23:00:00 13,6 6,8 - - 28 15 63 34 SSW 1012,4 29 0,0
16.10.2017 22:00:00 13,8 6,7 - - 31 17 63 34 SSW 1012,0 30 0,0
16.10.2017 21:00:00 14,5 7,4 - - 28 15 48 26 SSW 1011,5 1,9 0,0
16.10.2017 20:00:00 14,7 7,5 - - 28 15 59 32 SSW 1011,2 2,6 0,0
16.10.2017 19:00:00 15,0 7,1 - - 35 19 67 36 SSW 1010,5 2,7 0,0
16.10.2017 18:00:00 16,0 6,5 - - 39 21 74 40 SSW 1009,7 2,0 0,0
16.10.2017 17:00:00 17,4 7,2 - - 37 20 67 36 SSW 1009,4 1,8 0,0
16.10.2017 16:00:00 18,3 10,7 - - 35 19 63 34 S 1009,2 1,7 0,0
16.10.2017 15:00:00 19,0 11,5 - - 37 20 61 33 S 1009,4 4,4 0,0
16.10.2017 14:00:00 18,4 13,2 - - 29 16 57 31 S 1009,7 7 0,0
16.10.2017 13:00:00 18,8 15,0 - - 26 14 48 26 S 1010,1 13 0,0
16.10.2017 12:00:00 19,0 15,4 - - 21 11 - - SSE 1010,4 26 0,0
16.10.2017 11:00:00 18,9 15,5 - - 21 11 - - SSE 1010,8 16 0,0
16.10.2017 10:00:00 17,3 15,5 14,5 14,4 16 9 - - SE 1011,1 20 0,0
16.10.2017 09:00:00 16,3 15,1 - - 18 10 - - SSE 1011,3 12 0,0
16.10.2017 08:00:00 15,3 14,9 - - 16 9 - - SE 1012,0 6 0,0
16.10.2017 07:00:00 14,7 14,4 - - 8 4 - - SE 1013,4 4,0 0,0
16.10.2017 06:00:00 15,0 14,6 - - 11 6 - - SSE 1014,5 3,2 0,0
16.10.2017 05:00:00 14,7 14,3 - - 8 4 - - SSE 1014,5 4,3 0,0
16.10.2017 04:00:00 14,9 14,4 - - 5 3 - - SSE 1014,7 5 0,0
16.10.2017 03:00:00 14,5 14,0 - - 2 1 - - SSW 1014,8 5 0,0
16.10.2017 02:00:00 14,1 13,5 - - 8 4 - - S 1014,8 5 0,0
16.10.2017 01:00:00 14,3 13,2 - - 11 6 - - SSE 1014,9 8 0,0
16.10.2017 00:00:00 13,9 13,0 - - 9 5 - - SE 1015,2 9 0,0
15.10.2017 23:00:00 13,2 12,4 - - 8 4 - - SSE 1015,8 11 0,0
15.10.2017 22:00:00 12,1 11,5 - - 9 5 - - S 1016,0 9 0,0
15.10.2017 21:00:00 12,7 11,5 - - 4 2 - - S 1015,9 12 0,0
15.10.2017 20:00:00 12,4 11,2 - - 5 3 - - S 1015,9 12 0,0
15.10.2017 19:00:00 13,7 11,6 - - 8 4 - - S 1015,6 17 0,0
15.10.2017 18:00:00 15,0 11,8 - - 8 4 - - SSW 1015,2 23 0,0
15.10.2017 17:00:00 15,7 11,7 - - 13 7 - - SSW 1015,0 28 0,0
15.10.2017 16:00:00 16,9 12,4 - - 15 8 - - SSW 1015,0 35 0,0
15.10.2017 15:00:00 16,3 12,0 - - 16 9 - - SSW 1015,5 35 0,0
15.10.2017 14:00:00 17,2 12,5 - - 21 11 - - SSW 1015,6 40 0,0
15.10.2017 13:00:00 16,5 12,4 - - 18 10 - - SSW 1015,6 29 0,0
15.10.2017 12:00:00 17,1 14,6 - - 16 9 - - S 1015,3 17 0,0
15.10.2017 11:00:00 15,8 14,6 - - 15 8 - - S 1015,6 11 0,0
15.10.2017 10:00:00 14,5 14,1 14,5 14,2 13 7 - - S 1016,2 2,1 0,0
15.10.2017 09:00:00 14,3 13,5 - - 15 8 - - SSW 1016,4 1,8 0,0
15.10.2017 08:00:00 14,1 13,4 - - 13 7 - - S 1016,1 2,1 0,0
15.10.2017 07:00:00 13,8 13,2 - - 13 7 - - SSE 1016,1 2,8 0,0
15.10.2017 06:00:00 13,6 13,1 - - 9 5 - - S 1016,7 3,7 0,0
15.10.2017 05:00:00 13,3 12,8 - - 13 7 - - S 1017,2 2,5 0,0
15.10.2017 04:00:00 12,8 12,5 - - 13 7 - - S 1017,8 4,1 0,0
15.10.2017 03:00:00 12,1 11,7 - - 13 7 - - S 1018,6 6 0,0
15.10.2017 02:00:00 12,5 12,1 - - 16 9 - - SSE 1019,0 10 0,0
15.10.2017 01:00:00 12,9 12,1 - - 13 7 - - S 1019,8 16 0,0
15.10.2017 00:00:00 13,4 12,1 - - 13 7 - - S 1020,0 24 0,0
14.10.2017 23:00:00 13,4 11,8 - - 9 5 - - S 1020,6 28 0,0
14.10.2017 22:00:00 15,0 12,2 - - 11 6 - - S 1020,9 30 0,0

tt = temperature
td = dewpoint
tt -20cm = temperature -20cm
tt -100cm = temperature -100cm
ff = wind speed
fx = gusts
dd = wind direction
ppp = reduced air pressure
vv = visibility
rr = precipitation

Next stations